ONEWEB-0371 (49297 NORAD) Tracking and Keplerian Element Data

This shows tracking and keplerian element data for the satellite.

Feedback or suggestion? Click here.




ElementValue
Catalog49297
NameONEWEB-0371
Epoch Orbit352
Epoch Day339.91667824
Epoch Year2021
RAAN276.2864
Inclination87.5077
Eccentricity0.0007913
Argument of Perigee99.2005
Mean Anonmoly312.6515
Mean Motion14.42487269
Decay Rate-0.01001637
L11 49297U 21090U 21339.91667824 -.01001637 00000+0 -32368+0 0 9994
L22 49297 87.5077 276.2864 0007913 99.2005 312.6515 14.42487269 3527

Live tracking and technical data element details for ONEWEB-0371 (NORAD 49297). ONEWEB-0371 can be tracked NOW for your location showing map with azimuth and elevation plus other details from your city location.

Track the satellite on the map from your city or location and see movement details for azimuth, elevation, latitude, longitude, range, height, and movement on the map or in text.







IsCatalogInMostPopularTable: catalog: 49297, numindb: 11
Update: records affected: 1



GetName: 49297 ONEWEB-0371

Hit Count: updated at: Mon, 06 Dec 2021 14:02:09 GMT